Regional Weather Roundup
Issued by NWS Cleveland, OH

Home | Current Version | Previous Version | Text Only | Print | Product List | Glossary Off
Versions: 1 2 3 4 5 6 7 8 9 10 11 12 13 14 15 16 17 18 19 20 21 22 23 24 25 26 27 28 29 30 31 32 33 34 35 36 37 38 39 40 41 42 43 44 45 46 47 48 49 50

000
ASUS41 KCLE 211812
RWRCLE
OHIO REGIONAL WEATHER ROUNDUP
NATIONAL WEATHER SERVICE WILMINGTON, OH
100 PM EST SUN JAN 21 2018

NOTE: "FAIR" INDICATES FEW OR NO CLOUDS BELOW 12,000 FEET WITH NO
SIGNIFICANT WEATHER AND/OR OBSTRUCTIONS TO VISIBILITY.

OHZ001>008-015>018-024>027-034-035-043-044-211900-
   NORTHWEST OHIO

CITY           SKY/WX    TMP DP  RH WIND       PRES   REMARKS
DEFIANCE       FOG       42  41  96 S5        30.01F VSB 1/4
FINDLAY        CLOUDY    44  41  89 S7        30.01F FOG
TOLEDO EXPRESS CLOUDY    42  42 100 CALM      30.01F FOG
TOLEDO EXEC    CLOUDY    42  41  96 S6        30.03F FOG
LIMA           CLOUDY    47  46  97 SW12      30.01F
$$

OHZ009>014-019>023-028>033-038-089-211900-
   NORTHEAST OHIO

CITY           SKY/WX    TMP DP  RH WIND       PRES   REMARKS
CLE-HOPKINS    CLOUDY    45  42  89 S7        30.06F
CLE-LAKEFRONT  CLOUDY    44  41  89 SE8       30.04F FOG
CUY CO. ARPT   CLOUDY    45  32  61 S9        30.05F FOG
LORAIN-ELYRIA  CLOUDY    41  37  86 S7        30.04F FOG
ASHTABULA      FOG       39  38  96 S7        30.06F VSB 1/4
AKRON-CANTON   CLOUDY    42  40  92 S7        30.06F
WOOSTER        CLOUDY    43  41  93 S8        30.05F
MANSFIELD      CLOUDY    45  42  89 S8        30.04F
YOUNGSTOWN     FOG       41  41 100 S5        30.06F VSB 1/8
$$

OHZ042-051>053-060>062-070>072-077>081-211900-
  SOUTHWEST OHIO

CITY           SKY/WX    TMP DP  RH WIND       PRES   REMARKS
CINC-COVINGTON CLOUDY    55  47  74 SW12      30.06F
CINC-LUNKEN    CLOUDY    57  48  72 SW13      30.08F
HAMILTON       CLOUDY    55  46  71 SW8G17    30.07F
DAYTON         CLOUDY    50  46  86 SW14      30.05F
WRIGHT-PAT AFB CLOUDY    53  41  65 SW9       30.04F
DAYTON GENERAL CLOUDY    53  44  71 SW10      30.05F
WILMINGTON     CLOUDY    50  45  83 S9        30.05F
$$

OHZ036-037-039>041-045>050-054>059-063>069-073>076-082>088-211900-
  CENTRAL AND SOUTHEAST OHIO

CITY           SKY/WX    TMP DP  RH WIND       PRES   REMARKS
COLUMBUS       CLOUDY    48  43  82 S6        30.07F
OSU AIRPORT    CLOUDY    47  42  83 S8        30.06F
BOLTON FIELD   CLOUDY    48  41  76 SW9       30.06F
RICKENBACK AFB CLOUDY    47  42  82 S6        30.06F
NEWARK         CLOUDY    46  40  79 SW5       30.06F
MARION         CLOUDY    46  41  82 SW9       30.04F
LANCASTER      CLOUDY    49  42  77 S7        30.08F
ZANESVILLE     CLOUDY    47  40  76 S7        30.08F
NEW PHILLY     CLOUDY    47  40  76 VRB6      30.08F
$$




USA.gov is the U.S. government's official web portal to all federal, state and local government web resources and services.